Powrót do katalogu

FENGYUN 1C DEB

AktywnySSO
NORAD 31660·DEBRIS·🇨🇳 China

Wystrzelony May 10, 1999 z Taiyuan Satellite Launch Center

Loading…

Następne Przeloty (najbliższe 24 godziny)

TLE

ŚwieżeSource: Space-Track

Epoka: Sep 14, 2026, 04:49 UTC

1 31660U 99025CBS 26257.20110835  .00000801  00000-0  32216-3 0  9999
2 31660  98.5145 256.4002 0102434  92.8269 268.4641 14.27874449118460

Śledź FENGYUN 1C DEB w czasie rzeczywistym z AllMySat

Download on the App Store